MEASAT-3A

Last updated on Mon Jul 07 2025 00:02:43 GMT+0000 (Coordinated Universal Time)

1 35362U 09032A 25187.52450249 -.00000093 00000+0 00000+0 0 9998 2 35362 0.0227 329.4018 0003151 125.6739 178.4957 1.00272381 4562
UTC large
Height (km)
Speed (km/s)
/
Latitude / Longitude
Inclination (degrees)
Orbital Period (minutes)
Azimuth
Elevation
Range (km)
Doppler Factor

Next 0 passes for location: London (51.5072 / 0.1276)

Sorry there are no passes over London.